EGS (AJISAI)

导读

EGS(AJISAI)是日本宇宙开发事业团(NASDA)于1986年8月12日发射的大地测量卫星,运行于约1500公里高度的近地轨道,倾角约50°。这颗直径2.15米、重685千克的空心球体表面布满318面反射镜和1436个角锥棱镜反射器,通过激光测距与恒星定位提升日本大地三角测量精度,助力偏远岛屿定位,是激光大地测量领域的经典试验卫星。

Basic Information
目录编号:
16908
目录名称:
EGS (AJISAI)
国际标识:
1986-061A
轨道中心:
EARTH
卫星名称:
EGS (AJISAI)
卫星全名:
--
卫星状态:
在轨 (已飞行14552 天)
发射日期:
1986-08-12 UTC
国别 :
日本 (JP)
星等 :
--
Orbit Information
数据来源 国际轨道数据 AOE轨道数据
星历时间 2026-06-15T07:23:18+0800
6小时前
查看轨道信息
2026-06-15T06:00:00+0800
7小时前
查看轨道信息
半长轴 7865.651km 7865.657km
偏心率 0.0011226 0.001073
轨道倾角 50.006° 50.004°
近地点辐角 174.998° 171.371°
升交点赤经 154.199° 154.380°
平近点角 287.309° 31.604°
近地点 1478.684km 1479.08km
远地点 1496.344km 1495.96km
周期 115.708分钟 115.708分钟
每日圈数 12.445168 12.445155
Detailed Information
使用方式:
暂无
2D Orbit Map
3D Orbit Map
Orbit Altitude Analysis Chart
Orbit Inclination Analysis Chart
Orbit Comprehensive Analysis Chart
View Comprehensive Chart